Simultaneous Nadir Overpasses (SNOs) Predictions

Prediction of SNOs between AQUA and NOAA-19 Satellite Orbit:

Table of predicted SNOs for the next 14.0 days since TLE Epoch: 7/10/2021
Index Date (AQUA) Time (AQUA) Lat,Lon (AQUA) SZA (AQUA ) Date (NOAA-19) Time (NOAA-19) Lat,Lon (NOAA-19) SZA (NOAA-19 ) Distance(km) Time Diff (sec)
1 07/10/2021 20:10:29 -78.67, 35.50 122.51 07/10/2021 20:09:17 -78.57, 34.51 122.48 24.35 72
2 07/10/2021 20:59:58 78.74,-157.25 57.60 07/10/2021 21:00:10 78.71,-157.27 57.57 3.62 12
3 07/13/2021 02:33:41 -78.69, -60.40 122.16 07/13/2021 02:33:22 -78.71, -60.48 122.13 2.76 19
4 07/13/2021 03:23:09 78.72, 107.07 57.89 07/13/2021 03:24:18 78.72, 106.88 57.89 4.21 69
5 07/15/2021 08:07:27 78.70, 36.07 58.21 07/15/2021 08:06:27 78.69, 36.19 58.21 3.30 60
6 07/15/2021 08:56:53 -78.71,-156.32 121.78 07/15/2021 08:57:30 -78.73,-156.23 121.78 3.45 37
7 07/17/2021 14:30:38 78.69, -59.64 58.57 07/17/2021 14:30:35 78.70, -59.68 58.59 1.20 3
8 07/19/2021 20:04:22 -78.68, 36.95 121.04 07/19/2021 20:03:49 -78.67, 36.91 121.03 1.78 33
9 07/19/2021 20:53:50 78.72,-155.60 59.02 07/19/2021 20:54:43 78.70,-155.57 58.99 1.67 53
10 07/22/2021 01:38:07 78.67, 133.58 59.38 07/22/2021 01:36:54 78.60, 133.22 59.37 11.38 73



Historial Predications of SNOs between AQUA and NOAA-19
